DECAYED
Showing default

HYDRA-W, 63490 (Decayed)

Orbit data source: Space-Track

HYDRA-W, 63490 was a payload satellite owned by Hydra Space (ES) in LEO that was launched on Sat, 15 Mar 2025 UTC via an FALCON 9 launch vehicle from the Air Force Western Test Range (AFWTR). Payload-class satellites include a variety of spacecraft equipped with specific instruments for various scientific and technological missions. These include communications satellites like Starlink; space stations such as the ISS; scientific satellites like the Hubble; Earth observation satellites from companies like Planet Labs, Umbra, and HawkEye 360; GPS; miniature CubeSats for education and research; and military/defense satellites.

Not visible in the next 10 days
Identifier
63490, 2025-052BL
Orbit
Decayed
Country
Flag of ESES / SPN
Related business
Manufacturer
Hydra Space
Mission
Decayed Amateur Communications
Bus & Motor
PQ 1.5P, Unknown motor
Mass
0.375 kg wet, 0.375 kg dry
Launch date (UTC)
2025-03-15 (1 year ago)
Launch vehicle
FALCON 9
Launch site
Air Force Western Test Range (AFWTR)
Object type
Payload
Rocket body
Debris
Shape & HBR
Box, 1.1 m
Radar Cross Section
0.006 m², Small (<0.1 m²)

Expand to show TLE details & history
Last TLE update: 2 weeks ago

TLE from 2 weeks ago
0 HYDRA-W
1 63490U 25052BL  26113.93882235  .05662091  24406-5  29537-2 0  9997
2 63490  97.3690  18.2798 0008685 203.5899 156.4993 16.20186780 62336
Epoch: 2026-04-23T22:31Z
TLE epoch observation values (Epoch: 2026-04-23T22:31:54.251Z)
Latitude
0.00001°
Longitude
-171.67496°
Altitude
227.527 km
Speed
7.767 km/s
True Right ascension
01h 13m 07s
True Declination
0° 00' 00"
Sunlit
Object was in daylight at epoch
Visualization orbit readout
Latitude
Unknown
Longitude
Unknown
Altitude
Unknown
Speed
Unknown
Apparent Right ascension
Unknown
Apparent Declination
Unknown
Sunlit
N/A
Visualization observer readout
Local Sidereal Time
23:13:15
Azimuth
Unknown
Elevation
Unknown
Doppler factor
Unknown
Orbital elements
Apogee altitude
221.604 km
Perigee altitude
210.15 km
Semi-major axis
6,594.014 km
Eccentricity
0.00087
Inclination
97.369°
RAAN
18.2798°
Arg. of periapsis
203.5899°
True anomaly
156.53895°
Mean anomaly
156.4993°
Eccentric anomaly
156.51913°
Mean motion
4.05339 °/min
Orbital period
88.81 mins
BSTAR
0.0029537
Loading maneuver chart data...
Computing Atmospheric mass density...
Loading historical data...
Loading historical data...
Loading historical data...
Loading historical data...
Loading historical data...
Loading historical data...
Loading historical data...

Documentation

Showing up to 5 results
|